Погода в Илейкине

Россия / Владимирская область     56°04′23″N   38°51′24″E
темп.,
°C
ветер,
м/с
пор.,
м/с
влажн.,
%
обл.,
%
осадки,
мм/ч
давл.,
гПа
погр.,
м
16 мая, вс
вс1600:00+13ю311953 0.0 1010293
03:00+12ююз310974 0.0 1010306
06:00+12ююз39950 0.0 1012294
09:00+17юз48710 0.0 1013812
12:00+21юз47520 0.0 10131614
15:00+21ююз58547 0.0 10131891
18:00+19юз48701 0.6 1013675
21:00+14ююз22880 0.6 101423
17 мая, пн
пн1700:00+13юз119295 0.0 101510
03:00+12ююв1193100 0.0 101610
06:00+14в228833 0.0 101674
09:00+20вюв346441 0.0 1016513
12:00+23в355280 0.0 10151064
15:00+26вюв46469 0.0 10131434
18:00+25вюв48617 0.0 1012539
21:00+18вюв311914 0.1 1012232
18 мая, вт
вт1800:00+15вюв311925 0.0 1012227
03:00+14вюв3119417 0.0 1012196
06:00+16вюв413785 0.0 1012340
09:00+22юв5145269 0.0 1011687
12:00+27юв6113813 0.0 10111286
15:00+28юв511355 0.0 10102933
18:00+25юв511485 0.0 1010681
21:00+19вюв4157358 0.0 1010461
19 мая, ср
ср1900:00+17вюв41481100 0.0 1009401
03:00+16вюв4157821 0.0 1009440
06:00+17вюв414695 0.0 1008442
09:00+22юв510500 0.0 1008679
12:00+26юв611385 0.0 10071410
15:00+28юв6164010 0.0 10053635
18:00+24ю6116021 0.0 10051182
21:00+16ююв3129080 0.3 1006458
20 мая, чт
чт2000:00+15вюв289792 0.1 1007236
03:00+14вюв379893 0.6 1006218
06:00+14юв3894100 1.9 1005377
09:00+17ююв588035 2.5 1005923
12:00+16ю698166 2.3 10051160
15:00+16ю698199 4.2 10051199
18:00+15ю498644 2.8 1004884
21:00+12ю4119449 3.7 1006571